This demonstration page uses our WeatherBlox Daily Observations layout. Learn more.

Left ArrowRight Arrow

53.62937, 11.41316

Hourly Observations for December 23, 2021

Temp ( °F °C ) Dew Point ( °F °C ) Humidity (%) Winds ( mph kmh ) Pressure ( in mb ) Visibility ( mi km ) Precip ( " mm )
12:20 am 00:20 Mostly Clear 27 -3 25 -4 93 93 VRB 2 4 30.12 1020 4 7 N/A
12:50 am 00:50 Mostly Clear 25 -4 25 -4 100 100 SSE 3 6 30.10 1019 4 7 N/A
1:20 am 01:20 Partly Cloudy 25 -4 25 -4 100 100 S 3 6 30.10 1019 4 7 N/A
1:50 am 01:50 Mostly Clear 27 -3 25 -4 93 93 SSE 3 6 30.07 1018 4 6 N/A
2:20 am 02:20 Mostly Clear 27 -3 25 -4 93 93 SSE 5 7 30.07 1018 4 7 N/A
2:50 am 02:50 Mostly Clear 27 -3 25 -4 93 93 SSE 5 7 30.04 1017 5 8 N/A
3:20 am 03:20 Mostly Clear 27 -3 25 -4 93 93 VRB 2 4 30.04 1017 5 8 N/A
3:50 am 03:50 Mostly Clear 27 -3 25 -4 93 93 VRB 2 4 30.04 1017 4 7 N/A
4:20 am 04:20 Mostly Clear 27 -3 25 -4 93 93 SSE 5 7 30.01 1016 4 7 N/A
4:50 am 04:50 Mostly Clear 27 -3 25 -4 93 93 VRB 2 4 30.01 1016 5 8 N/A
5:20 am 05:20 Partly Cloudy 27 -3 25 -4 93 93 SSE 3 6 29.98 1015 5 8 N/A
5:50 am 05:50 Mostly Clear 27 -3 25 -4 93 93 SSE 3 6 29.98 1015 6 9 N/A
6:20 am 06:20 Mostly Clear 27 -3 25 -4 93 93 S 3 6 29.95 1014 6 9 N/A
6:50 am 06:50 Mostly Clear 27 -3 25 -4 93 93 S 3 6 29.95 1014 30 48 N/A
7:20 am 07:20 Partly Cloudy 27 -3 25 -4 93 93 SSE 3 6 29.92 1013 30 48 N/A
7:50 am 07:50 Mostly Clear 27 -3 25 -4 93 93 SE 6 9 29.89 1012 7 11 N/A
8:20 am 08:20 Mostly Clear 28 -2 25 -4 86 86 SSE 3 6 29.89 1012 7 11 N/A
8:50 am 08:50 Mostly Sunny 28 -2 25 -4 86 86 SE 6 9 29.89 1012 30 48 N/A
9:20 am 09:20 Mostly Sunny 28 -2 25 -4 86 86 SE 5 7 29.89 1012 30 48 N/A
9:50 am 09:50 Mostly Sunny 28 -2 25 -4 86 86 S 5 7 29.89 1012 7 11 N/A
10:20 am 10:20 Mostly Sunny 28 -2 25 -4 86 86 SSW 3 6 29.86 1011 7 11 N/A
10:50 am 10:50 Mostly Sunny 28 -2 27 -3 93 93 VRB 3 6 29.86 1011 7 11 N/A
11:20 am 11:20 Mostly Sunny 28 -2 27 -3 93 93 VRB 3 6 29.83 1010 7 11 N/A
11:50 am 11:50 Mostly Sunny 30 -1 27 -3 86 86 S 5 7 29.80 1009 7 11 N/A
12:20 pm 12:20 Mostly Sunny 30 -1 27 -3 86 86 SE 6 9 29.77 1008 7 11 N/A
12:50 pm 12:50 Mostly Sunny 30 -1 28 -2 93 93 SSE 7 11 29.77 1008 30 48 N/A
1:20 pm 13:20 Partly Cloudy 30 -1 27 -3 86 86 VRB 3 6 29.77 1008 30 48 N/A
1:50 pm 13:50 Partly Cloudy 30 -1 27 -3 86 86 S 5 7 29.74 1007 30 48 N/A
2:20 pm 14:20 Mostly Sunny 30 -1 27 -3 86 86 SSE 3 6 29.71 1006 7 11 N/A
2:50 pm 14:50 Partly Cloudy 30 -1 27 -3 86 86 S 3 6 29.71 1006 30 48 N/A
3:20 pm 15:20 Partly Cloudy with Scattered Snow Showers 30 -1 28 -2 93 93 VRB 3 6 29.68 1005 1 1 N/A
3:50 pm 15:50 Partly Cloudy with Snow 30 -1 28 -2 93 93 SSE 3 6 29.68 1005 1 2 N/A
4:20 pm 16:20 Mostly Clear with Snow 30 -1 28 -2 93 93 SSE 3 6 29.65 1004 1 2 N/A
4:50 pm 16:50 Partly Cloudy with Isolated Snow Showers 30 -1 28 -2 93 93 SSE 3 6 29.65 1004 2 3 N/A
5:20 pm 17:20 Partly Cloudy with Isolated Snow Showers 30 -1 28 -2 93 93 S 3 6 29.62 1003 2 3 N/A
5:50 pm 17:50 Mostly Cloudy with Light Snow 30 -1 30 -1 100 100 VRB 2 4 29.62 1003 1 2 N/A
6:20 pm 18:20 Mostly Cloudy with Snow 30 -1 30 -1 100 100 S 3 6 29.59 1002 1 2 N/A
6:50 pm 18:50 Mostly Cloudy with Light Snow 30 -1 30 -1 100 100 S 5 7 29.59 1002 2 3 N/A
7:20 pm 19:20 Mostly Cloudy with Snow 32 0 30 -1 93 93 SSW 3 6 29.56 1001 1 2 N/A
7:50 pm 19:50 Mostly Cloudy with Snow 32 0 30 -1 93 93 VRB 3 6 29.56 1001 1 2 N/A
8:20 pm 20:20 Mostly Cloudy with Snow 32 0 32 0 100 100 VRB 3 6 29.56 1001 1 2 N/A
8:50 pm 20:50 Mostly Cloudy with Light Snow 32 0 32 0 100 100 SW 3 6 29.53 1000 N/A N/A
9:20 pm 21:20 Mostly Clear 32 0 32 0 100 100 WSW 3 6 29.53 1000 3 5 N/A
9:50 pm 21:50 Mostly Clear 34 1 32 0 93 93 SW 5 7 29.50 999 3 5 N/A
10:20 pm 22:20 Mostly Clear 34 1 32 0 93 93 S 3 6 29.50 999 3 5 N/A
10:50 pm 22:50 Mostly Clear 34 1 32 0 93 93 SSW 3 6 29.50 999 2 4 N/A
11:20 pm 23:20 Mostly Clear 34 1 34 1 100 100 VRB 2 4 29.47 998 3 4 N/A
11:50 pm 23:50 Mostly Clear 34 1 32 0 93 93 VRB 1 2 29.47 998 1 1 N/A

Powered by AerisWeather